User: anonymous   Login
Location: Heilwood
(40.6210°N, 78.9150°W)
Time: 07:22:17
(UTC-05:00)
Language:

Iridium 4 Rocket - Orbit

View from above orbital plane
View from above orbital plane
View from above satellite
View from above satellite

Ground track
Ground track

The orbit data is extracted from the following two-line orbital elements,

1 24797U 97020F   15026.24510304  .00000713  00000-0  14978-3 0  8789
2 24797 086.8991 312.9313 0226061 347.5322 165.4942 14.43422019931999
Epoch (UTC): 26 January 2015 05:52:56
Eccentricity: 0.0226061
inclination: 86.8991°
perigee height: 586 km
apogee height: 908 km
right ascension of ascending node: 312.9313°
argument of perigee: 347.5322°
revolutions per day: 14.43422019
mean anomaly at epoch: 165.4942°
orbit number at epoch: 93199

The dashed part of the orbit path shows where the satellite is in the earth's shadow,  

DLR